Regional Weather Roundup
Issued by NWS Kansas City/Pleasant Hill, MO

Home | Current Version | Previous Version | Graphics & Text | Print | Product List | Glossary Off
Versions: 1 2 3 4 5 6 7 8 9 10 11 12 13 14 15 16 17 18 19 20 21 22 23 24 25 26 27

000
ASUS43 KEAX 271610
RWREAX

WEATHER ROUNDUP FOR EASTERN KANSAS AND NORTHWEST MISSOURI
NATIONAL WEATHER SERVICE KANSAS CITY/PLEASANT HILL MO
1100 AM CDT TUE JUN 27 2017

KSZ040-057-103>105-MOZ028-029-037-043-271700-
...KANSAS CITY METROPOLITAN AREA...

CITY           SKY/WX    TMP DP  RH WIND       PRES   REMARKS
K.C. INTL      MOSUNNY   71  60  68 SE14G23   30.09F
K.C. DOWNTOWN  SUNNY     74  59  59 E13       30.07F
LEES SUMMIT    SUNNY     72  59  63 SE14      30.09F
OLATHE - IXD   SUNNY     72  59  63 SE15      30.09F
OLATHE - OJC   SUNNY     71  60  68 SE17      30.08F
LAWRENCE       MOSUNNY   74  62  66 SE14      30.07F

$$

MOZ001>008-011>017-020>025-030>033-038>040-044>046-053-054-271700-
...NORTHERN AND CENTRAL MISSOURI...

CITY           SKY/WX    TMP DP  RH WIND       PRES   REMARKS
ST. JOSEPH     SUNNY     72  61  68 SE16      30.09F
MOSBY          SUNNY     70  57  64 SE9       30.10F
WARRENSBURG    SUNNY     70  55  60 E9        30.11F
WHITEMAN AFB   NOT AVBL
CLINTON        SUNNY     73  59  60 SE13      30.11F
SEDALIA        SUNNY     72  63  73 E10       30.13F
WARSAW         NOT AVBL
CHILLICOTHE      N/A     72  59  63 SE9       30.12F
KIRKSVILLE     SUNNY     72  53  51 SE7       30.15F

$$

MOZ041-047>049-056>058-063>065-088>090-097-271700-
...EASTERN AND SOUTHERN MISSOURI...

CITY           SKY/WX    TMP DP  RH WIND       PRES   REMARKS
ST. LOUIS INTL MOSUNNY   75  55  49 SE9       30.15F
SPIRIT OF STL  MOSUNNY   74  56  53 VRB3      30.14F
COLUMBIA       SUNNY     72  59  63 SE8       30.14F
JEFFERSON CITY MOSUNNY   70  60  70 SE6       30.14F
ROLLA          SUNNY     71  57  61 SE8       30.14F
OSAGE BEACH    PTSUNNY   71  60  68 SE8       30.14F
SPRINGFIELD    SUNNY     72  63  73 S12       30.12S
BRANSON        MOSUNNY   73  63  68 SE7       30.13F
JOPLIN         SUNNY     79  68  69 VRB5      30.09F
WEST PLAINS    MOSUNNY   71  58  63 SE6       30.16F

$$

IAZ060-094-KSZ022-034>040-054-083-096-NEZ052-066-093-271700-
...KANSAS...SOUTHEAST NEBRASKA AND IOWA...

CITY           SKY/WX    TMP DP  RH WIND       PRES   REMARKS
TOPEKA         PTSUNNY   72  64  76 SE10      30.07F
MANHATTAN      PTSUNNY   72  63  73 SE10      30.03F
EMPORIA        CLOUDY    71  64  78 SE10      30.06F
CHANUTE        CLOUDY    72  65  78 SE9       30.07F
WICHITA        PTSUNNY   75  69  81 S12       30.01F
OMAHA          MOSUNNY   72  55  55 S17       30.05F
LINCOLN        SUNNY     72  58  61 SE18      30.03F
FALLS CITY     SUNNY     71  59  65 SE13      30.06F
LAMONI         SUNNY     70  56  61 SE8       30.11F
DES MOINES     MOSUNNY   71  43  36 SE10      30.11F

$$





USA.gov is the U.S. government's official web portal to all federal, state and local government web resources and services.